Weather History for KSLB - November, 2014

Change the Weather History Date:

Saturday, November 8, 2014

  Actual Average Record
Temperature  
Mean Temperature 38 °F -  
Max Temperature 44 °F 47 °F 82 °F (2006)
Min Temperature 32 °F 30 °F 19 °F (2000)
Degree Days  
Heating Degree Days 27    
Moisture  
Dew Point 26 °F    
Average Humidity 61    
Maximum Humidity 70    
Minimum Humidity 49    
Precipitation  
Precipitation 0.00 in - - ()
Sea Level Pressure  
Sea Level Pressure 30.04 in    
Wind  
Wind Speed 20 mph (WNW)    
Max Wind Speed 32 mph    
Max Gust Speed 47 mph    
Visibility 10 miles    
Events      
Averages and records for this station are not official NWS values.
T = Trace of Precipitation, MM = Missing Value Source: NWS Daily Summary

Daily Weather History Graph

Daily Weather History Graph

Search for Another Location

Airport or City:

Trip Planner

Search our weather history database for the weather conditions in past years. The results will help you decide how hot, cold, wet, or windy it might be!

Date:

Astronomy

Nov. 08, 2014 Rise Set
Actual Time 7:03 AM CST 5:05 PM CST
Civil Twilight 6:33 AM CST 5:35 PM CST
Nautical Twilight 6:00 AM CST 6:08 PM CST
Astronomical Twilight 5:26 AM CST 6:41 PM CST
Moon 6:46 PM CST (11/8) 8:41 AM CST (11/8)
Length of Visible Light 11h 01m
Length of Day
10h 01m
Waning Gibbous, 96% of the Moon is Illuminated
Nov 8
Waning Gibbous
Nov 14
Last Quarter
Nov 22
New
Nov 29
First Quarter
Dec 6
Full

Hourly Weather History & Observations

Time (CST) Temp. Windchill Dew Point Humidity Pressure Visibility Wind Dir Wind Speed Gust Speed Precip Events Conditions
12:15 AM 44.6 °F 35.7 °F 33.8 °F 66% 29.97 in 10.0 mi NNW 24.2 mph 34.5 mph N/A   Overcast
12:35 AM 42.8 °F 31.9 °F 33.8 °F 70% 29.97 in 10.0 mi NNW 32.2 mph 44.9 mph N/A   Overcast
12:55 AM 42.8 °F 32.1 °F 32.0 °F 66% 29.98 in 10.0 mi North 31.1 mph 47.2 mph N/A   Overcast
1:15 AM 42.8 °F 32.7 °F 30.2 °F 61% 29.99 in 10.0 mi NNW 27.6 mph 36.8 mph N/A   Overcast
1:35 AM 42.8 °F 33.3 °F 30.2 °F 61% 29.99 in 10.0 mi NNW 24.2 mph 34.5 mph N/A   Overcast
1:55 AM 41.0 °F 31.6 °F 30.2 °F 65% 30.00 in 10.0 mi NNW 20.7 mph 29.9 mph N/A   Overcast
2:15 AM 41.0 °F 30.9 °F 28.4 °F 61% 30.01 in 10.0 mi NW 24.2 mph 36.8 mph N/A   Overcast
2:35 AM 41.0 °F 30.9 °F 28.4 °F 61% 30.02 in 10.0 mi NNW 24.2 mph 35.7 mph N/A   Overcast
2:55 AM 41.0 °F 30.0 °F 28.4 °F 61% 30.03 in 10.0 mi NNW 28.8 mph 38.0 mph N/A   Overcast
3:15 AM 41.0 °F 30.2 °F 28.4 °F 61% 30.03 in 10.0 mi NNW 27.6 mph 41.4 mph N/A   Overcast
3:35 AM 39.2 °F 27.6 °F 26.6 °F 61% 30.04 in 10.0 mi NNW 28.8 mph 36.8 mph N/A   Overcast
3:55 AM 39.2 °F 29.0 °F 28.4 °F 65% 30.05 in 10.0 mi NW 21.9 mph 33.4 mph N/A   Overcast
4:15 AM 39.2 °F 29.3 °F 28.4 °F 65% 30.06 in 10.0 mi NNW 20.7 mph 28.8 mph N/A   Overcast
4:35 AM 39.2 °F 29.6 °F 28.4 °F 65% 30.07 in 10.0 mi NW 19.6 mph 28.8 mph N/A   Overcast
4:55 AM 39.2 °F 28.3 °F 26.6 °F 61% 30.07 in 10.0 mi NNW 25.3 mph 34.5 mph N/A   Overcast
5:15 AM 37.4 °F 26.6 °F 24.8 °F 60% 30.08 in 10.0 mi NNW 21.9 mph 31.1 mph N/A   Overcast
5:35 AM 37.4 °F 27.5 °F 24.8 °F 60% 30.08 in 10.0 mi NNW 18.4 mph 26.5 mph N/A   Overcast
5:55 AM 37.4 °F 27.8 °F 24.8 °F 60% 30.09 in 10.0 mi NNW 17.3 mph - N/A   Overcast
6:15 AM 35.6 °F 25.5 °F 24.8 °F 65% 30.09 in 10.0 mi NNW 17.3 mph - N/A   Mostly Cloudy
6:35 AM 35.6 °F 25.9 °F 24.8 °F 65% 30.11 in 10.0 mi NNW 16.1 mph - N/A   Mostly Cloudy
6:55 AM 37.4 °F 27.8 °F 24.8 °F 60% 30.11 in 10.0 mi NNW 17.3 mph 23.0 mph N/A   Overcast
7:15 AM 37.4 °F 26.1 °F 24.8 °F 60% 30.12 in 10.0 mi NNW 24.2 mph 33.4 mph N/A   Overcast
7:35 AM 37.4 °F 26.6 °F 24.8 °F 60% 30.12 in 10.0 mi NNW 21.9 mph 27.6 mph N/A   Overcast
7:55 AM 37.4 °F 29.3 °F 26.6 °F 65% 30.13 in 10.0 mi NNW 12.7 mph 19.6 mph N/A   Overcast
8:15 AM 37.4 °F 28.5 °F 24.8 °F 60% 30.14 in 10.0 mi NNW 15.0 mph 23.0 mph N/A   Overcast
8:35 AM 39.2 °F 29.8 °F 24.8 °F 56% 30.14 in 10.0 mi North 18.4 mph 24.2 mph N/A   Overcast
8:55 AM 37.4 °F 27.8 °F 24.8 °F 60% 30.15 in 10.0 mi NNW 17.3 mph - N/A   Mostly Cloudy
9:15 AM 37.4 °F 27.2 °F 23.0 °F 56% 30.15 in 10.0 mi NNW 19.6 mph 26.5 mph N/A   Mostly Cloudy
9:35 AM 39.2 °F 30.5 °F 24.8 °F 56% 30.16 in 10.0 mi NNW 16.1 mph 21.9 mph N/A   Mostly Cloudy
9:55 AM 39.2 °F 29.6 °F 24.8 °F 56% 30.16 in 10.0 mi NNW 19.6 mph - N/A   Mostly Cloudy
10:15 AM 39.2 °F 30.2 °F 24.8 °F 56% 30.16 in 10.0 mi NNW 17.3 mph 27.6 mph N/A   Mostly Cloudy
10:35 AM 39.2 °F 29.8 °F 24.8 °F 56% 30.17 in 10.0 mi NNW 18.4 mph - N/A   Mostly Cloudy
10:55 AM 39.2 °F 30.5 °F 24.8 °F 56% 30.17 in 10.0 mi NW 16.1 mph 26.5 mph N/A   Mostly Cloudy
11:15 AM 41.0 °F 31.9 °F 24.8 °F 53% 30.16 in 10.0 mi NW 19.6 mph - N/A   Overcast
11:35 AM 41.0 °F 31.9 °F 24.8 °F 53% 30.15 in 10.0 mi NNW 19.6 mph - N/A   Mostly Cloudy
11:55 AM 42.8 °F 34.5 °F 24.8 °F 49% 30.14 in 10.0 mi NW 18.4 mph - N/A   Mostly Cloudy
12:15 PM 41.0 °F 34.3 °F 23.0 °F 49% 30.12 in 10.0 mi NW 11.5 mph 21.9 mph N/A   Partly Cloudy
4:35 PM 41.0 °F 33.5 °F 24.8 °F 53% 30.06 in 10.0 mi West 13.8 mph - N/A   Clear
4:55 PM 41.0 °F 34.3 °F 24.8 °F 53% 30.05 in 10.0 mi West 11.5 mph - N/A   Clear
5:15 PM 39.2 °F 32.5 °F 24.8 °F 56% 30.04 in 10.0 mi West 10.4 mph - N/A   Clear
5:35 PM 37.4 °F 31.4 °F 24.8 °F 60% 30.03 in 10.0 mi WSW 8.1 mph - N/A   Clear
5:55 PM 35.6 °F 29.9 °F 23.0 °F 60% 30.03 in 10.0 mi West 6.9 mph - N/A   Clear
6:15 PM 35.6 °F 29.2 °F 23.0 °F 60% 30.03 in 10.0 mi West 8.1 mph - N/A   Clear
6:35 PM 32.0 °F 24.2 °F 23.0 °F 69% 30.02 in 10.0 mi SW 9.2 mph - N/A   Clear
6:55 PM 35.6 °F 29.2 °F 24.8 °F 65% 30.02 in 10.0 mi WSW 8.1 mph - N/A   Mostly Cloudy
7:15 PM 35.6 °F 29.2 °F 24.8 °F 65% 30.02 in 10.0 mi WSW 8.1 mph - N/A   Overcast
7:35 PM 35.6 °F 28.6 °F 26.6 °F 70% 30.01 in 10.0 mi SW 9.2 mph - N/A   Overcast
7:55 PM 37.4 °F 32.1 °F 24.8 °F 60% 30.00 in - SW 6.9 mph - N/A   Overcast
8:15 PM 37.4 °F 31.4 °F 24.8 °F 60% 30.00 in 10.0 mi SW 8.1 mph - N/A   Overcast
8:35 PM 37.4 °F 31.4 °F 24.8 °F 60% 29.98 in 10.0 mi SW 8.1 mph - N/A   Overcast
8:55 PM 37.4 °F 31.4 °F 24.8 °F 60% 29.97 in 10.0 mi SW 8.1 mph - N/A   Overcast
9:15 PM 37.4 °F 31.4 °F 24.8 °F 60% 29.94 in 10.0 mi SSW 8.1 mph - N/A   Overcast
9:35 PM 37.4 °F 29.3 °F 24.8 °F 60% 29.92 in 10.0 mi SSW 12.7 mph - N/A   Overcast
9:55 PM 37.4 °F 28.9 °F 26.6 °F 65% 29.92 in 10.0 mi SSW 13.8 mph - N/A   Overcast
10:15 PM 37.4 °F 28.2 °F 26.6 °F 65% 29.92 in 10.0 mi SSW 16.1 mph - N/A   Overcast
10:35 PM 37.4 °F 29.3 °F 26.6 °F 65% 29.91 in 10.0 mi SSW 12.7 mph - N/A   Mostly Cloudy
10:55 PM 37.4 °F 28.5 °F 26.6 °F 65% 29.90 in 10.0 mi SSW 15.0 mph - N/A   Overcast
11:15 PM 39.2 °F 31.6 °F 26.6 °F 61% 29.90 in 10.0 mi SW 12.7 mph - N/A   Overcast
11:35 PM 39.2 °F 30.8 °F 26.6 °F 61% 29.90 in 10.0 mi SW 15.0 mph - N/A   Overcast
11:55 PM 39.2 °F 32.0 °F 26.6 °F 61% 29.88 in 10.0 mi SSW 11.5 mph 17.3 mph N/A   Overcast